Orbital Elements at Epoch 2459000.5 (2020-May-31.0) TDB
Reference: JPL 18 (heliocentric ecliptic J2000)
Element | Value | Uncertainty (1-sigma) | Units |
e | .1338499583080404 | 3.9495e-08 | |
a | 2.579631089689121 | 1.3221e-08 | au |
q | 2.234347575884108 | 9.7889e-08 | au |
i | 3.420372517169378 | 4.6713e-06 | deg |
node | 221.1003537141013 | 6.9302e-05 | deg |
peri | 231.9054666898714 | 7.1927e-05 | deg |
M | 121.6898905644336 | 2.2288e-05 | deg |
tp | 2458488.951482653117 (2019-Jan-05.45148265) | 9.142e-05 | TDB |
period | 1513.334142965378 4.14 | 1.1634e-05 3.185e-08 | d yr |
n | .2378853352866143 | 1.8288e-09 | deg/d |
Q | 2.924914603494135 | 1.4991e-08 | au |
|
| | Orbit Determination Parameters
Additional Information
|